Location: Unspecified
(33.6682°S, 0.0000°E)
Time: 18:34:08
(UTC+00:00)

Tiros 1 despin weight - Pass Details

Date: 25 June 2019
Orbit: 594 x 642 km, 48.2° (Epoch: 18 July)

Event Time Altitude Azimuth Distance (km) Brightness Sun altitude
Rises 14:24:20 0° 226° (SW) 2,967 ? 23.7°
Reaches altitude 10° 14:27:09 10° 210° (SSW) 2,058 ? 23.4°
Maximum altitude 14:30:50 22° 159° (SSE) 1,427 ? 22.9°
Drops below altitude 10° 14:34:30 10° 108° (ESE) 2,050 ? 22.5°
Sets 14:37:18 0° 93° (E) 2,953 ? 22.1°
